Somerset, KY

2:20 PM EST on December 13, 2017 (GMT -0500)
Somerset-Pulaski County-Wilson

Weather History for KSME - December, 2013

Change the Weather History Date:

Sunday, December 15, 2013

  Actual Average Record
Temperature  
Mean Temperature 32 °F -  
Max Temperature 35 °F 46 °F 66 °F (1996)
Min Temperature 30 °F 28 °F 5 °F (2010)
Degree Days  
Heating Degree Days 32    
Moisture  
Dew Point 28 °F    
Average Humidity 85    
Maximum Humidity 100    
Minimum Humidity 75    
Precipitation  
Precipitation 0.00 in - - ()
Sea Level Pressure  
Sea Level Pressure 30.10 in    
Wind  
Wind Speed 9 mph (West)    
Max Wind Speed 15 mph    
Max Gust Speed 20 mph    
Visibility 10 miles    
Events      
Averages and records for this station are not official NWS values.
T = Trace of Precipitation, MM = Missing Value Source: NWS Daily Summary

Daily Weather History Graph

Daily Weather History Graph

Search for Another Location

Airport or City:

Trip Planner

Search our weather history database for the weather conditions in past years. The results will help you decide how hot, cold, wet, or windy it might be!

Date:

Astronomy

Dec. 15, 2013 Rise Set
Actual Time 7:44 AM EST 5:22 PM EST
Civil Twilight 7:15 AM EST 5:51 PM EST
Nautical Twilight 6:43 AM EST 6:24 PM EST
Astronomical Twilight 6:11 AM EST 6:56 PM EST
Moon 4:24 PM EST (12/15) 6:01 AM EST (12/15)
Length of Visible Light 10h 36m
Length of Day
9h 38m
Waxing Gibbous, 97% of the Moon is Illuminated
Dec 15
Waxing Gibbous
Dec 17
Full
Dec 25
Last Quarter
Jan 1
New
Jan 7
First Quarter

Hourly Weather History & Observations

Time (EST) Temp. Windchill Dew Point Humidity Pressure Visibility Wind Dir Wind Speed Gust Speed Precip Events Conditions
12:15 AM 35.6 °F 27.5 °F 33.8 °F 93% 29.93 in 10.0 mi WNW 11.5 mph 16.1 mph N/A   Overcast
12:35 AM 35.6 °F 28.6 °F 33.8 °F 93% 29.93 in 10.0 mi West 9.2 mph - N/A   Overcast
12:55 AM 35.6 °F 29.2 °F 32.0 °F 87% 29.93 in 10.0 mi WNW 8.1 mph 19.6 mph N/A   Overcast
1:15 AM 33.8 °F 26.4 °F 32.0 °F 93% 29.94 in 10.0 mi WNW 9.2 mph - N/A   Overcast
1:35 AM 33.8 °F 25.3 °F 32.0 °F 93% 29.95 in 10.0 mi WNW 11.5 mph 18.4 mph N/A   Overcast
1:55 AM 33.8 °F 26.4 °F 32.0 °F 93% 29.96 in 10.0 mi WNW 9.2 mph 18.4 mph N/A   Overcast
2:15 AM 33.8 °F 25.3 °F 32.0 °F 93% 29.96 in 10.0 mi NW 11.5 mph 16.1 mph N/A   Overcast
2:35 AM 33.8 °F 25.8 °F 32.0 °F 93% 29.96 in 10.0 mi NW 10.4 mph - N/A   Overcast
2:55 AM 33.8 °F 25.3 °F 32.0 °F 93% 29.97 in 10.0 mi NW 11.5 mph 17.3 mph N/A   Overcast
3:15 AM 33.8 °F 25.3 °F 32.0 °F 93% 29.98 in 10.0 mi WNW 11.5 mph 18.4 mph N/A   Overcast
3:35 AM 32.0 °F 22.5 °F 32.0 °F 100% 29.99 in 7.0 mi WNW 12.7 mph 16.1 mph N/A   Overcast
3:55 AM 32.0 °F 24.8 °F 32.0 °F 100% 29.99 in 7.0 mi WNW 8.1 mph - N/A   Overcast
4:15 AM 32.0 °F 23.0 °F 32.0 °F 100% 30.00 in 10.0 mi NW 11.5 mph - N/A   Overcast
4:35 AM 32.0 °F 25.6 °F 32.0 °F 100% 30.01 in 7.0 mi NW 6.9 mph 16.1 mph N/A   Overcast
4:55 AM 32.0 °F 24.2 °F 32.0 °F 100% 30.01 in 7.0 mi WNW 9.2 mph - N/A   Overcast
5:15 AM 32.0 °F 25.6 °F 32.0 °F 100% 30.01 in 10.0 mi WNW 6.9 mph - N/A   Overcast
5:35 AM 32.0 °F 25.6 °F 30.2 °F 93% 30.02 in 10.0 mi WNW 6.9 mph - N/A   Overcast
5:55 AM 32.0 °F 24.8 °F 30.2 °F 93% 30.03 in 10.0 mi WNW 8.1 mph - N/A   Overcast
6:15 AM 32.0 °F 24.2 °F 30.2 °F 93% 30.04 in 10.0 mi WNW 9.2 mph - N/A   Overcast
6:35 AM 32.0 °F 25.6 °F 30.2 °F 93% 30.05 in 10.0 mi WNW 6.9 mph - N/A   Overcast
6:55 AM 32.0 °F 24.2 °F 28.4 °F 87% 30.05 in 10.0 mi WNW 9.2 mph - N/A   Overcast
7:15 AM 32.0 °F 26.4 °F 28.4 °F 87% 30.06 in 10.0 mi NW 5.8 mph - N/A   Overcast
7:35 AM 32.0 °F 25.6 °F 28.4 °F 87% 30.07 in 10.0 mi WNW 6.9 mph - N/A   Overcast
7:55 AM 32.0 °F 26.4 °F 28.4 °F 87% 30.08 in 10.0 mi WNW 5.8 mph - N/A   Overcast
8:15 AM 32.0 °F 25.6 °F 28.4 °F 87% 30.09 in 10.0 mi WNW 6.9 mph - N/A   Overcast
8:35 AM 32.0 °F 24.8 °F 28.4 °F 87% 30.10 in 10.0 mi West 8.1 mph 16.1 mph N/A   Overcast
8:55 AM 32.0 °F 23.6 °F 30.2 °F 93% 30.11 in 10.0 mi WNW 10.4 mph 17.3 mph N/A   Overcast
9:15 AM 32.0 °F 24.8 °F 30.2 °F 93% 30.12 in 10.0 mi NW 8.1 mph - N/A   Overcast
9:35 AM 32.0 °F 23.0 °F 28.4 °F 87% 30.13 in 10.0 mi WNW 11.5 mph 16.1 mph N/A   Overcast
9:55 AM 32.0 °F 24.8 °F 28.4 °F 87% 30.14 in 10.0 mi WNW 8.1 mph - N/A   Overcast
10:15 AM 32.0 °F 23.6 °F 28.4 °F 87% 30.15 in 10.0 mi West 10.4 mph - N/A   Overcast
10:35 AM 32.0 °F 23.0 °F 28.4 °F 87% 30.15 in 10.0 mi WNW 11.5 mph - N/A   Overcast
10:55 AM 32.0 °F 22.5 °F 28.4 °F 87% 30.15 in 10.0 mi West 12.7 mph 16.1 mph N/A   Overcast
11:15 AM 32.0 °F 21.6 °F 28.4 °F 87% 30.15 in 10.0 mi West 15.0 mph 18.4 mph N/A   Overcast
11:35 AM 32.0 °F 22.5 °F 28.4 °F 87% 30.15 in 7.0 mi WNW 12.7 mph 16.1 mph N/A   Overcast
11:55 AM 32.0 °F 23.6 °F 28.4 °F 87% 30.15 in 10.0 mi West 10.4 mph - N/A   Overcast
12:15 PM 32.0 °F 24.2 °F 26.6 °F 80% 30.14 in 10.0 mi WNW 9.2 mph 16.1 mph N/A   Overcast
12:35 PM 30.2 °F 21.9 °F 26.6 °F 86% 30.13 in 10.0 mi West 9.2 mph - N/A   Overcast
12:55 PM 30.2 °F 20.8 °F 26.6 °F 86% 30.13 in 10.0 mi West 11.5 mph - N/A   Overcast
1:15 PM 30.2 °F 21.3 °F 24.8 °F 80% 30.13 in 10.0 mi West 10.4 mph - N/A   Overcast
1:35 PM 30.2 °F 23.4 °F 24.8 °F 80% 30.12 in 10.0 mi West 6.9 mph - N/A   Overcast
1:55 PM 32.0 °F 24.8 °F 24.8 °F 75% 30.11 in 10.0 mi West 8.1 mph - N/A   Overcast
2:15 PM 32.0 °F 23.6 °F 26.6 °F 80% 30.12 in 10.0 mi West 10.4 mph - N/A   Overcast
2:35 PM 32.0 °F 23.6 °F 26.6 °F 80% 30.13 in 10.0 mi West 10.4 mph - N/A   Overcast
2:55 PM 32.0 °F 24.8 °F 26.6 °F 80% 30.13 in 10.0 mi West 8.1 mph - N/A   Overcast
3:15 PM 32.0 °F 24.8 °F 26.6 °F 80% 30.13 in 10.0 mi West 8.1 mph - N/A   Overcast
3:35 PM 32.0 °F 24.2 °F 24.8 °F 75% 30.14 in 10.0 mi WNW 9.2 mph - N/A   Overcast
3:55 PM 32.0 °F 24.2 °F 24.8 °F 75% 30.15 in 10.0 mi West 9.2 mph - N/A   Overcast
4:15 PM 30.2 °F 21.9 °F 23.0 °F 75% 30.16 in 10.0 mi West 9.2 mph - N/A   Overcast
4:35 PM 30.2 °F 22.6 °F 23.0 °F 75% 30.18 in 10.0 mi WNW 8.1 mph - N/A   Overcast
4:55 PM 30.2 °F 24.3 °F 23.0 °F 75% 30.18 in 10.0 mi West 5.8 mph - N/A   Overcast
5:15 PM 30.2 °F 21.9 °F 24.8 °F 80% 30.18 in 10.0 mi West 9.2 mph - N/A   Overcast
5:35 PM 30.2 °F 22.6 °F 24.8 °F 80% 30.18 in 10.0 mi West 8.1 mph - N/A   Overcast
5:55 PM 30.2 °F 21.9 °F 24.8 °F 80% 30.18 in 10.0 mi West 9.2 mph - N/A   Overcast
6:15 PM 30.2 °F 22.6 °F 24.8 °F 80% 30.18 in 10.0 mi WSW 8.1 mph - N/A   Overcast
6:35 PM 30.2 °F 24.3 °F 24.8 °F 80% 30.18 in 10.0 mi West 5.8 mph - N/A   Overcast
6:55 PM 30.2 °F 25.4 °F 24.8 °F 80% 30.18 in 10.0 mi WSW 4.6 mph - N/A   Overcast
7:15 PM 32.0 °F 25.6 °F 24.8 °F 75% 30.18 in 10.0 mi WSW 6.9 mph - N/A   Overcast
7:35 PM 32.0 °F 24.8 °F 24.8 °F 75% 30.18 in 10.0 mi SW 8.1 mph - N/A   Overcast
7:55 PM 32.0 °F 23.0 °F 24.8 °F 75% 30.18 in 10.0 mi WSW 11.5 mph 16.1 mph N/A   Overcast
8:15 PM 32.0 °F 24.2 °F 24.8 °F 75% 30.20 in 10.0 mi WSW 9.2 mph - N/A   Overcast
8:35 PM 32.0 °F 22.5 °F 24.8 °F 75% 30.19 in 10.0 mi WSW 12.7 mph 17.3 mph N/A   Overcast
8:55 PM 32.0 °F 24.8 °F 24.8 °F 75% 30.18 in 10.0 mi WSW 8.1 mph - N/A   Overcast
9:15 PM 32.0 °F 22.5 °F 24.8 °F 75% 30.19 in 10.0 mi SW 12.7 mph 16.1 mph N/A   Overcast
9:35 PM 32.0 °F 24.8 °F 24.8 °F 75% 30.18 in 10.0 mi SW 8.1 mph - N/A   Overcast
9:55 PM 32.0 °F 25.6 °F 24.8 °F 75% 30.18 in 10.0 mi SW 6.9 mph - N/A   Overcast
10:15 PM 32.0 °F 24.8 °F 26.6 °F 80% 30.18 in 10.0 mi SW 8.1 mph - N/A   Overcast
10:35 PM 32.0 °F 24.2 °F 26.6 °F 80% 30.18 in 10.0 mi WSW 9.2 mph - N/A   Overcast
10:55 PM 32.0 °F 24.8 °F 26.6 °F 80% 30.18 in 10.0 mi SW 8.1 mph - N/A   Overcast
11:15 PM 32.0 °F 24.8 °F 26.6 °F 80% 30.18 in 10.0 mi SW 8.1 mph - N/A   Overcast
11:35 PM 32.0 °F 26.4 °F 26.6 °F 80% 30.18 in 10.0 mi WSW 5.8 mph - N/A   Overcast
11:55 PM 32.0 °F 26.4 °F 26.6 °F 80% 30.18 in 10.0 mi WSW 5.8 mph - N/A   Overcast